Погода в Росильне

Украина / Ивано-Франковская область     48°46′43″N   24°22′44″E
темп.,
°C
ветер,
м/с
пор.,
м/с
влажн.,
%
обл.,
%
осадки,
мм/ч
давл.,
гПа
погр.,
м
4 августа, ср
ср400:00+14ююз22876 0.1 101725
03:00+13юз228512 0.1 101616
06:00+15ююз1186100 0.4 101611
09:00+19ю1274100 0.4 1016142
12:00+24в335544 0.0 1015952
15:00+25в3354100 0.0 1014876
18:00+23всв237038 0.0 1013204
21:00+18ю117911 0.0 101312
5 августа, чт
чт500:00+16ююз2274100 0.0 101417
03:00+16ю2271100 0.0 101218
06:00+18ююз2260100 0.0 101123
09:00+20в116699 0.0 1010114
12:00+24в335994 0.0 1008450
15:00+26св13615 0.0 1006488
18:00+19ссз369491 4.4 1005160
21:00+17юз2585100 6.8 100292
6 августа, пт
пт600:00+16ююз338899 0.0 100443
03:00+15ююз238932 0.0 100347
06:00+15ююз1287100 0.0 100212
09:00+17ссз1191100 1.7 1004104
12:00+18ссз008599 0.3 1005187
15:00+22сз2370100 2.9 10051035
18:00+17ссз588586 1.6 1007624
21:00+15сз258899 1.8 1009344
7 августа, сб
сб700:00+14з129369 0.0 101059
03:00+12зюз119414 0.0 101110
06:00+12юз22920 0.0 101219
09:00+17з12680 0.0 1012224
12:00+22с24522 0.0 10131445
15:00+23ссв33520 0.0 10121286
18:00+23всв32600 0.0 10131051
21:00+17юв22825 0.0 101418
8 августа, вс
вс800:00+15ююз32875 0.0 101532
03:00+14ю22857 0.0 101517
06:00+14ююз22725 0.0 101517
09:00+20юв12645 0.0 1015165
12:00+25вюв335617 0.0 1014559
15:00+27в44527 0.0 1014700
18:00+26в346035 0.0 1014505
21:00+20ююв337849 0.0 101542